Дальний

Россия / Чукотский автономный округ     67°34′52″N   160°45′26″E
темп.,
°C
ветер,
м/с
пор.,
м/с
влажн.,
%
обл.,
%
осадки,
мм/ч
давл.,
гПа
погр.,
м
3 марта, ср
ср300:00−36юв1110034 0.0 102719
03:00−35ююз1110043 0.0 102719
06:00−36вюв1110064 0.0 102819
09:00−35ююв119990 0.0 102719
12:00−29ю129495 0.0 1024104
15:00−27ююв2291100 0.0 1022183
18:00−28юв1194100 0.0 101919
21:00−32юв119924 0.0 101719
4 марта, чт
чт400:00−31св119744 0.0 101419
03:00−30ссв2394100 0.0 100927
06:00−30ссв4599100 0.0 100396
09:00−30с57100100 0.4 998152
12:00−29с5699100 1.3 991148
15:00−24с5699100 0.6 987166
18:00−23ссз4599100 0.9 984137
21:00−24сз3499100 0.4 983126
5 марта, пт
пт500:00−28зюз3398100 0.8 98292
03:00−30юз4495100 0.2 982109
06:00−31юз4494100 0.3 98296
09:00−31юз4495100 0.1 983116
12:00−28юз4595100 0.3 983215
15:00−25зюз4591100 0.1 983287
18:00−23юз2396100 0.2 98386
21:00−24ссз2298100 0.1 98520
6 марта, сб
сб600:00−25ссз3499100 0.3 98677
03:00−26зсз2398100 0.2 98757
06:00−25сз3998100 0.6 988445
09:00−26сз3897100 0.3 990392
12:00−26ссз5893100 0.4 992855
15:00−26ссз5791100 0.2 993927
18:00−28ссз4796100 0.3 994433
21:00−29зсз2297100 0.1 99644
7 марта, вс
вс700:00−31зсз1197100 0.1 99820
03:00−34з1198100 0.0 99919
06:00−35зсз11100100 0.0 100119
09:00−34зсз119892 0.0 100319
12:00−30сз119289 0.0 1004154
15:00−28ссз249198 0.0 1004434
18:00−29ссз239799 0.1 1003141
21:00−31з2295100 0.1 100429